Location: ?
(35.4064°N, 139.3593°E)
Time: 12:32:59
(UTC+00:00)

Resurs 1-4 Rocket - Visible Passes

Search period start: 15 July 2024 00:00
Search period end: 25 July 2024 00:00
Orbit: 799 x 812 km, 98.7° (Epoch: 15 July)

Date Brightness Start Highest point End Pass type
(mag) Time Alt. Az. Time Alt. Az. Time Alt. Az.
15 Jul 4.4 15:20:43 10° ENE 15:22:52 14° E 15:22:52 14° E visible
15 Jul 2.1 16:58:15 10° N 17:03:30 62° WNW 17:03:54 59° W visible
16 Jul 2.1 16:33:18 10° NNE 16:38:38 77° ESE 16:38:39 77° ESE visible
16 Jul 4.2 18:15:38 10° NW 18:17:42 12° WNW 18:19:41 10° W visible
17 Jul 2.9 16:08:37 10° NNE 16:13:22 43° E 16:13:22 43° E visible
17 Jul 3.6 17:49:12 10° NNW 17:53:06 21° WNW 17:54:26 19° W visible
18 Jul 3.8 15:44:20 10° NE 15:48:06 24° E 15:48:06 24° E visible
18 Jul 2.9 17:23:37 10° N 17:28:25 35° WNW 17:29:09 34° W visible
19 Jul 4.4 15:20:53 10° ENE 15:22:50 13° E 15:22:50 13° E visible
19 Jul 2.1 16:58:24 10° N 17:03:39 62° WNW 17:03:53 61° W visible
20 Jul 2.1 16:33:26 10° NNE 16:38:36 76° E 16:38:36 76° E visible
20 Jul 4.1 18:15:47 10° NW 18:17:50 12° WNW 18:19:39 10° W visible
21 Jul 3.0 16:08:46 10° NNE 16:13:20 42° E 16:13:20 42° E visible
21 Jul 3.6 17:49:21 10° NNW 17:53:15 21° WNW 17:54:23 20° W visible
22 Jul 3.8 15:44:29 10° NE 15:48:03 24° E 15:48:03 24° E visible
22 Jul 2.9 17:23:46 10° N 17:28:34 35° WNW 17:29:06 35° W visible
23 Jul 4.5 15:21:02 10° ENE 15:22:46 13° E 15:22:46 13° E visible
23 Jul 2.2 16:58:33 10° N 17:03:47 62° WNW 17:03:48 62° WNW visible
24 Jul 2.2 16:33:35 10° NNE 16:38:32 72° ENE 16:38:32 72° ENE visible
24 Jul 4.1 18:15:56 10° NW 18:17:59 12° WNW 18:19:35 11° W visible
